Starlink 30935

operational
NORAD ID: 58455 Int'l Des: 2023-183 Owner: SPXS Country: US Constellation: starlink
LEOCIRCULAR

Über Starlink 30935

Beschreibung wird geladen...

Live-Position

3D-Globus wird geladen...

Nächste Überflüge

Höhenverlauf

Altitude vs Time

uPlot chart will show altitude changes over time

Zweizeiliger Elementsatz

1 58455U 23183U 25258.44816914 .00000186 00000-0 28867-4 0 9993
2 58455 43.0029 275.5086 0001436 272.9799 87.0879 15.02536044100357
Epoch: 15. Sept. 2025 • Age: 15 hours

Aktueller Status

Höhe 564.5 km
Geschwindigkeit 7.58 km/s
Subsatellitenpunkt -24.21°S, 94.28°E
Startdatum 28. Nov. 2023
Alter 1.7 years
Typ internet

Technische Details

Klassifizierung Payload
Masse 730.00 kg
Trockenmasse 700.00 kg
Gesamtmasse 730.00 kg
Länge 0.30 m
Durchmesser 4.10 m
Spannweite 29.00 m
Form Box + pan
Hersteller SPXS
Bus-Typ Starlink V2M
Phasenstatus In Orbit
Besitzer/Staat SPXS/US

Große Konstellationen

Loading constellations...